Douglas, WY

5:52 PM MST on December 05, 2016 (GMT -0700)
Converse County

Weather History for KDGW - June, 2013

Change the Weather History Date:

Thursday, June 27, 2013

  Actual Average Record
Temperature  
Mean Temperature 76 °F 68 °F  
Max Temperature 98 °F 84 °F 98 °F (2013)
Min Temperature 53 °F 51 °F 42 °F (2011)
Cooling Degree Days 11 4  
Month to date cooling degree days 78 58  
Year to date cooling degree days 94 64  
Since 1 June cooling degree days 78 58  
Growing Degree Days 25 (Base 50)    
Moisture  
Dew Point 44 °F    
Average Humidity 47    
Maximum Humidity 83    
Minimum Humidity 10    
Precipitation  
Precipitation 0.00 in 0.07 in 0.22 in (1979)
Month to date precipitation 0.51 1.73  
Year to date precipitation 5.13 7.37  
Sea Level Pressure  
Sea Level Pressure 30.04 in    
Wind  
Wind Speed 7 mph (NNW)    
Max Wind Speed 24 mph    
Max Gust Speed 32 mph    
Visibility 10 miles    
Events      
T = Trace of Precipitation, MM = Missing Value Source: NWS Daily Summary

Daily Weather History Graph

Daily Weather History Graph

Search for Another Location

Airport or City:

Trip Planner

Search our weather history database for the weather conditions in past years. The results will help you decide how hot, cold, wet, or windy it might be!

Date:

Astronomy

Jun. 27, 2013 Rise Set
Actual Time 5:25 AM MDT 8:44 PM MDT
Civil Twilight 4:50 AM MDT 9:19 PM MDT
Nautical Twilight 4:04 AM MDT 10:04 PM MDT
Astronomical Twilight 3:08 AM MDT 11:00 PM MDT
Moon 11:34 PM MDT (6/27) 10:36 AM MDT (6/27)
Length of Visible Light 16h 29m
Length of Day
15h 18m
Waning Gibbous, 76% of the Moon is Illuminated
Jun 27
Waning Gibbous
Jun 29
Last Quarter
Jul 8
New
Jul 15
First Quarter
Jul 22
Full

Hourly Weather History & Observations

Time (MDT) Temp. Dew Point Humidity Pressure Visibility Wind Dir Wind Speed Gust Speed Precip Events Conditions
12:53 AM 62.1 °F 46.9 °F 58% 29.95 in 10.0 mi West 6.9 mph - N/A   Clear
1:53 AM 57.9 °F 46.9 °F 67% 29.97 in 10.0 mi Calm Calm - N/A   Clear
2:53 AM 60.1 °F 48.0 °F 64% 29.99 in 10.0 mi Calm Calm - N/A   Clear
3:53 AM 57.0 °F 48.9 °F 74% 30.01 in 10.0 mi Calm Calm - N/A   Clear
4:53 AM 55.0 °F 48.0 °F 77% 30.03 in 10.0 mi Calm Calm - N/A   Clear
5:53 AM 53.1 °F 48.0 °F 83% 30.06 in 10.0 mi Calm Calm - N/A   Clear
6:53 AM 61.0 °F 50.0 °F 67% 30.07 in 10.0 mi Calm Calm - N/A   Clear
7:53 AM 66.0 °F 50.0 °F 56% 30.07 in 10.0 mi Calm Calm - N/A   Clear
8:53 AM 72.0 °F 51.1 °F 48% 30.08 in 10.0 mi WSW 5.8 mph - N/A   Clear
9:53 AM 75.9 °F 51.1 °F 42% 30.09 in 10.0 mi Calm Calm - N/A   Clear
10:53 AM 81.0 °F 51.1 °F 35% 30.08 in 10.0 mi Calm Calm - N/A   Clear
11:53 AM 89.1 °F 44.1 °F 21% 30.04 in 10.0 mi West 10.4 mph 20.7 mph N/A   Clear
12:53 PM 91.0 °F 39.0 °F 16% 30.05 in 10.0 mi NW 10.4 mph 17.3 mph N/A   Clear
1:53 PM 93.0 °F 39.9 °F 16% 30.04 in 10.0 mi WNW 10.4 mph 18.4 mph N/A   Clear
2:53 PM 97.0 °F 30.9 °F 10% 30.00 in 10.0 mi WNW 20.7 mph 26.5 mph N/A   Clear
3:53 PM 96.1 °F 32.0 °F 10% 30.01 in 10.0 mi NW 13.8 mph 20.7 mph N/A   Clear
4:53 PM 96.1 °F 30.0 °F 10% 30.00 in 10.0 mi NNW 12.7 mph - N/A   Clear
5:53 PM 96.1 °F 34.0 °F 11% 29.99 in 10.0 mi NNE 11.5 mph - N/A   Clear
6:53 PM 93.0 °F 30.9 °F 11% 29.98 in 10.0 mi NE 16.1 mph - N/A   Clear
7:53 PM 86.0 °F 43.0 °F 22% 30.00 in 10.0 mi NE 16.1 mph 24.2 mph N/A   Clear
8:53 PM 78.1 °F 46.0 °F 32% 30.04 in 10.0 mi ENE 9.2 mph - N/A   Clear
9:53 PM 70.0 °F 46.9 °F 44% 30.10 in 10.0 mi ENE 4.6 mph - N/A   Clear
10:53 PM 66.0 °F 48.0 °F 52% 30.12 in 10.0 mi ENE 4.6 mph - N/A   Clear
11:53 PM 64.9 °F 48.0 °F 54% 30.13 in 10.0 mi Calm Calm - N/A   Clear